Location: Grimentz
(46.1794°N, 7.5757°E)
Time: 02:02:52
(UTC+00:00)

Daily predictions for brighter satellites

Satellite Brightness Start Highest point End
(mag) Time Altitude Azimuth Time Altitude Azimuth Time Altitude Azimuth
USA 267 4.4 03:25:44 10° SE 03:29:01 32° SSE 03:29:01 32° SSE
Cosmos 2278 Rocket 4.1 03:36:40 20° SE 03:36:40 20° SE 03:38:21 10° SSE
Cosmos 2219 Rocket 4.1 03:41:53 20° NNE 03:41:53 20° NNE 03:43:33 10° NNE
Cosmos 2237 Rocket 3.0 03:43:06 48° ENE 03:43:06 48° ENE 03:47:39 10° NE
BREEZE-M DEB (TANK) 3.9 03:55:50 67° WNW 03:57:06 89° SW 04:01:29 10° ESE
Cosmos 2333 Rocket 4.0 04:04:35 20° N 04:04:35 20° N 04:06:36 10° NNE
Lacrosse 4 Rocket 2.9 04:04:26 35° E 04:04:26 35° E 04:07:44 10° NE
FENGYUN 3A 4.3 04:01:01 10° NNE 04:04:52 48° NNE 04:04:52 48° NNE
Cosmos 1891 Rocket 4.3 04:10:02 85° NW 04:10:02 85° NW 04:16:00 10° N
Cosmos 2360 Rocket 4.5 04:15:25 12° N 04:15:25 12° N 04:15:58 10° N
Cosmos 1464 Rocket 3.8 04:13:47 59° SSW 04:15:02 87° W 04:21:16 10° N
Gbstr 26 Del rocket 4.4 04:13:50 58° SW 04:15:31 82° SSE 04:23:40 10° ENE
Cosmos 841 Rocket 3.9 04:16:53 54° NNE 04:16:53 54° NNE 04:20:53 10° NNE
Cosmos 1980 3.7 04:17:06 68° N 04:17:06 68° N 04:22:09 10° NNE
MOS 1 Rocket 4.5 04:14:16 10° SE 04:18:46 40° ENE 04:23:02 10° N
Meteor 1-21 Rocket 4.2 04:17:53 36° N 04:20:26 88° E 04:26:18 10° S
Meteor 2-13 Rocket 4.4 04:15:07 10° N 04:21:20 84° E 04:27:28 10° S
FALCON 9 R/B 4.2 04:24:54 11° SSW 04:24:54 11° SSW 04:25:19 10° S
Cosmos 1072 Rocket 4.3 04:22:08 66° WSW 04:22:45 71° W 04:29:07 10° N
COSMOS 2428 4.1 04:25:09 25° N 04:25:09 25° N 04:28:00 10° NNE
SKYMED 2 4.1 04:19:00 10° SSE 04:23:14 57° ENE 04:23:56 50° NNE
Atlas Centaur 2 4.2 04:26:50 20° SSW 04:28:39 22° S 04:34:26 10° SE
ATLAS CENTAUR R/B 2.3 04:31:44 38° NE 04:31:44 38° NE 04:34:10 10° NE
METEOR-M 4.0 04:28:16 10° N 04:33:37 74° WNW 04:34:33 59° SW
Cosmos 1689 Rocket 4.3 04:33:04 10° SE 04:35:29 24° ENE 04:35:31 24° ENE
Cosmos 2150 Rocket 4.3 04:33:50 23° NNW 04:37:10 67° ENE 04:42:33 10° SSE
Lacrosse 5 rocket 3.7 04:40:11 11° S 04:40:11 11° S 04:40:25 10° S
Cosmos 2084 Rocket 3.4 04:37:18 83° NE 04:37:20 83° NE 04:41:51 10° SE
Cosmos 1092 Rocket 4.2 04:32:17 10° N 04:38:25 68° E 04:44:35 10° SSE
Cosmos 1340 4.2 04:42:00 27° S 04:42:00 27° S 04:43:48 10° S
Cosmos 372 Rocket 3.9 04:40:33 61° WSW 04:40:33 61° WSW 04:45:32 10° S
ALOS 4.1 04:36:28 10° N 04:37:53 19° N 04:37:53 19° N
USA 215 3.9 04:35:37 10° NE 04:41:35 39° NNW 04:43:15 34° NW
Cosmos 1602 Rocket 3.6 04:40:25 28° N 04:42:45 80° E 04:47:14 10° SSE
BREEZE-M DEB (TANK) 4.5 04:44:16 17° ENE 04:44:16 17° ENE 04:44:59 10° ENE
GEOS 3 Rocket 4.5 04:38:20 10° ESE 04:43:28 47° NE 04:46:52 21° NNW
ADEOS 3.4 04:38:47 10° N 04:44:00 73° WNW 04:47:41 20° SSW
USA 307 2.8 04:44:43 80° SSW 04:44:53 83° SSE 04:49:08 10° ENE
NOSS 0 Rocket 4.2 04:45:40 45° WNW 04:46:01 45° NW 04:51:57 10° NNE
Cosmos 1328 3.8 04:46:59 48° N 04:47:59 78° E 04:51:53 10° SSE
Nadezhda 4 Rocket 3.8 04:42:51 10° NNW 04:48:54 65° W 04:54:57 10° S
BREEZE-M (TANK) 4.0 04:52:16 16° SE 04:52:16 16° SE 04:52:47 10° SE
USA 305 2.7 04:50:49 74° WSW 04:51:11 87° NNW 04:55:26 10° ENE
USA 308 2.8 04:53:18 66° WSW 04:53:53 87° NNW 04:58:10 10° ENE
Cosmos 1400 Rocket 2.7 04:53:19 56° SW 04:54:04 74° W 04:58:13 10° N
Cosmos 2098 Rocket 4.2 04:48:38 10° N 04:54:14 52° ENE 04:58:38 10° SSE
SL-4 R/B 1.7 04:55:30 74° NNW 04:55:32 74° NNW 04:59:33 10° ENE
FALCON 9 DEB 4.4 04:55:02 29° SSE 04:55:39 32° SE 04:58:30 10° ENE
Cosmos 1943 Rocket 2.7 04:51:10 13° NNW 04:56:13 60° ENE 05:01:48 10° SE
Cosmos 2034 Rocket 4.0 04:50:24 10° SSW 04:56:41 61° WNW 05:02:59 10° N
Meteor 1-16 Rocket 4.2 04:51:46 10° SSW 04:57:40 67° WNW 05:03:35 10° N
Cosmos 1570 Rocket 4.2 04:57:36 45° W 04:58:15 48° WNW 05:03:21 10° NNE
CZ-4B R/B 4.0 04:57:09 10° S 04:57:25 12° S 04:57:25 12° S
Cosmos 540 Rocket 4.1 05:01:40 34° NW 05:01:40 34° NW 05:05:49 10° N
CZ-2C R/B 4.1 04:56:37 10° SE 05:01:23 36° ENE 05:06:16 10° N
SJ-12 3.9 04:58:10 10° N 05:02:16 60° WNW 05:04:12 29° SW
USA 306 2.8 05:02:36 54° W 05:03:27 74° NNW 05:07:42 10° NE
Cosmos 2298 Rocket 3.9 05:00:29 23° NNW 05:03:53 70° WSW 05:09:10 10° S
NOSS 3-2 (A) 3.3 05:00:28 17° SW 05:04:56 87° NW 05:11:30 10° NE
Cosmos 1814 Rocket 4.2 05:03:50 40° W 05:04:56 46° WNW 05:09:53 10° N
Envisat 3.7 05:01:28 10° NNE 05:06:29 55° E 05:11:27 10° S
Cosmos 2369 Rocket 3.2 05:01:11 10° NNW 05:06:33 44° NE 05:11:52 10° SE
Cosmos 1125 Rocket 3.5 05:01:52 13° NNW 05:06:40 86° ENE 05:11:59 10° SSE
Cosmos 1634 Rocket 4.1 05:00:48 10° S 05:06:56 78° E 05:13:09 10° N
COSMO-SKYMED 1 2.8 05:07:11 10° S 05:11:21 45° W 05:12:33 35° NW
CZ-4B R/B 2.5 05:07:42 10° N 05:11:21 72° WNW 05:15:07 10° SSW
PSLV R/B 3.8 05:09:15 10° S 05:13:23 79° WSW 05:17:35 10° NNW
Cosmos 2278 Rocket 4.0 05:18:36 14° SW 05:18:36 14° SW 05:19:51 10° SW
Cosmos 2228 3.3 05:12:58 10° S 05:17:10 67° E 05:21:23 10° NNE
SL-16 R/B 2.1 05:12:22 10° SSW 05:18:00 75° WNW 05:23:43 10° NNE
NOSS 3-2 (C) 3.5 05:12:59 10° SSW 05:18:34 73° SE 05:25:01 10° NE
CZ-2C R/B 3.5 05:19:17 12° SW 05:20:49 14° SSW 05:23:06 10° SSE
ERBS 3.8 05:18:34 10° SSW 05:21:35 35° SE 05:24:38 10° ENE
Cosmos 972 Rocket 4.2 05:16:10 10° SSW 05:22:25 68° WNW 05:27:59 10° NNE
Cosmos 2219 Rocket 4.0 05:23:36 13° NNW 05:23:36 13° NNW 05:25:52 10° N
Cosmos 1953 Rocket 4.2 05:19:18 10° N 05:23:36 57° ENE 05:27:53 10° SSE
ERS-2 2.4 05:20:34 10° S 05:24:02 42° W 05:25:09 32° NW
Cosmos 2026 Rocket 4.0 05:18:19 10° NNW 05:24:41 73° W 05:31:01 10° S
CENTAUR R/B 2.5 05:19:56 10° SW 05:25:49 85° SE 05:32:54 10° NE
ATLAS 5 CENTAUR R/B 3.5 05:25:47 17° SW 05:25:56 17° SW 05:29:05 10° S
Cosmos 2237 Rocket 3.1 05:24:59 25° WNW 05:26:29 28° NW 05:31:23 10° N
H-2A R/B 2.6 05:24:40 10° N 05:28:20 58° WNW 05:32:02 10° SSW
FALCON 9 DEB 3.1 05:30:00 21° SW 05:31:56 68° SE 05:35:03 10° ENE
Meteor PRIRODA 3.9 05:29:32 10° N 05:32:58 41° WNW 05:36:23 10° SW
Cosmos 1606 Rocket 3.5 05:29:17 10° S 05:33:36 90° ENE 05:37:58 10° N
NOAA 6 4.3 05:32:16 10° NNE 05:37:29 74° ESE 05:42:39 10° S
FALCON 9 DEB 2.8 05:38:25 20° WSW 05:40:25 90° SE 05:43:32 10° ENE
Lacrosse 4 Rocket 2.5 05:40:48 21° W 05:42:27 27° NW 05:46:14 10° NNE
Meteor 1-11 4.5 05:40:08 10° NNW 05:45:26 45° W 05:50:43 10° SSW
Cosmos 1300 2.9 05:41:54 10° SSW 05:45:34 46° WNW 05:49:17 10° N
SAR-Lupe-4 4.4 05:44:32 10° SSW 05:47:42 29° W 05:50:19 13° NW
Cosmos 1315 Rocket 2.9 05:46:21 10° SSW 05:50:08 50° WNW 05:53:59 10° N
deb Chang Zheng 4 4.4 05:47:00 10° N 05:50:35 27° WNW 05:54:09 10° WSW
Cosmos 2142 Rocket 4.5 05:44:51 10° SSW 05:51:08 71° W 05:57:23 10° N
[s.n.47389] 3.6 05:48:58 10° SW 05:51:26 42° SE 05:53:55 10° ENE
[s.n.47399] 3.6 05:49:00 10° SW 05:51:28 43° SE 05:53:57 10° ENE
[s.n.47393] 3.6 05:49:02 10° SW 05:51:30 43° SE 05:53:59 10° ENE
[s.n.47353] 3.5 05:49:06 10° SW 05:51:34 43° SE 05:54:04 10° ENE
[s.n.47355] 3.5 05:49:09 10° SW 05:51:38 43° SE 05:54:08 10° ENE
[s.n.47365] 3.5 05:49:12 10° SW 05:51:41 43° SE 05:54:11 10° ENE
[s.n.47383] 3.5 05:49:17 10° SW 05:51:46 43° SE 05:54:15 10° ENE
[s.n.47400] 3.6 05:49:16 10° SW 05:51:47 43° SE 05:54:19 10° ENE
[s.n.47378] 3.5 05:49:23 10° SW 05:51:52 43° SE 05:54:21 10° ENE
[s.n.47395] 3.5 05:49:26 10° SW 05:51:54 43° SE 05:54:24 10° ENE
[s.n.47379] 3.5 05:49:32 10° SW 05:52:01 43° SE 05:54:30 10° ENE
[s.n.47370] 3.5 05:49:32 10° SW 05:52:01 43° SE 05:54:30 10° ENE
[s.n.47351] 3.5 05:49:33 10° SW 05:52:04 44° SE 05:54:37 10° ENE
[s.n.47394] 3.5 05:49:39 10° SW 05:52:07 43° SE 05:54:37 10° ENE
[s.n.47354] 3.5 05:49:42 10° SW 05:52:11 43° SE 05:54:41 10° ENE
[s.n.47360] 3.5 05:49:44 10° SW 05:52:13 43° SE 05:54:43 10° ENE
[s.n.47369] 3.5 05:49:49 10° SW 05:52:18 43° SE 05:54:48 10° ENE
[s.n.47406] 3.5 05:49:51 10° SW 05:52:20 44° SE 05:54:50 10° ENE
[s.n.47384] 3.5 05:49:55 10° SW 05:52:23 44° SE 05:54:53 10° ENE
[s.n.47356] 3.5 05:49:58 10° SW 05:52:26 44° SE 05:54:56 10° ENE
[s.n.47407] 3.5 05:50:01 10° SW 05:52:30 44° SE 05:55:00 10° ENE
[s.n.47385] 3.5 05:50:01 10° SW 05:52:32 44° SE 05:55:05 10° ENE
[s.n.47358] 3.5 05:50:08 10° SW 05:52:37 44° SE 05:55:07 10° ENE
[s.n.47398] 3.5 05:50:10 10° SW 05:52:39 44° SE 05:55:10 10° ENE
[s.n.47361] 3.5 05:50:14 10° SW 05:52:43 44° SE 05:55:14 10° ENE
[s.n.47392] 3.5 05:50:16 10° SW 05:52:45 44° SE 05:55:16 10° ENE
[s.n.47382] 3.5 05:50:20 10° SW 05:52:49 44° SE 05:55:18 10° ENE
[s.n.47359] 3.5 05:50:21 10° SW 05:52:52 44° SE 05:55:23 10° ENE
[s.n.47401] 3.5 05:50:28 10° SW 05:52:57 44° SE 05:55:26 10° ENE
[s.n.47380] 3.5 05:50:26 10° SW 05:52:58 45° SE 05:55:31 10° ENE
[s.n.47386] 3.5 05:50:34 10° SW 05:53:03 44° SE 05:55:33 10° ENE
[s.n.47408] 3.5 05:50:33 10° SW 05:53:05 45° SE 05:55:39 10° ENE
[s.n.47396] 3.5 05:50:40 10° SW 05:53:09 44° SE 05:55:39 10° ENE
[s.n.47391] 3.5 05:50:41 10° SW 05:53:11 45° SE 05:55:42 10° ENE
[s.n.47402] 3.5 05:50:45 10° SW 05:53:15 45° SE 05:55:45 10° ENE
[s.n.47404] 3.5 05:50:49 10° SW 05:53:18 45° SE 05:55:48 10° ENE
[s.n.47403] 3.5 05:50:52 10° SW 05:53:22 45° SE 05:55:52 10° ENE
[s.n.47381] 3.5 05:50:55 10° SW 05:53:25 45° SE 05:55:55 10° ENE
[s.n.47372] 3.5 05:51:00 10° SW 05:53:29 45° SE 05:55:59 10° ENE
Cosmos 1655 Rocket 4.2 05:47:12 10° N 05:53:29 76° E 05:59:48 10° SSE
[s.n.47405] 3.5 05:51:02 10° SW 05:53:31 45° SE 05:56:01 10° ENE
[s.n.47368] 3.4 05:51:06 10° SW 05:53:36 45° SE 05:56:07 10° ENE
[s.n.47350] 3.4 05:51:08 10° SW 05:53:38 45° SE 05:56:09 10° ENE
[s.n.47349] 3.5 05:51:08 10° SW 05:53:40 46° SE 05:56:14 10° ENE
[s.n.47367] 3.4 05:51:13 10° SW 05:53:43 45° SE 05:56:15 10° ENE
[s.n.47373] 3.5 05:51:14 10° SW 05:53:47 46° SE 05:56:20 10° ENE
[s.n.47377] 3.5 05:51:17 10° SW 05:53:50 46° SE 05:56:24 10° ENE
[s.n.47371] 3.5 05:51:20 10° SW 05:53:53 46° SE 05:56:26 10° ENE
[s.n.47362] 3.4 05:51:23 10° SW 05:53:55 46° SE 05:56:29 10° ENE
[s.n.47363] 3.4 05:51:27 10° SW 05:53:59 46° SE 05:56:33 10° ENE
[s.n.47374] 3.4 05:51:32 10° SW 05:54:03 46° SE 05:56:35 10° ENE
[s.n.47357] 3.4 05:51:36 10° SW 05:54:07 46° SE 05:56:38 10° ENE
[s.n.47390] 3.4 05:51:41 10° SW 05:54:10 46° SE 05:56:41 10° ENE
[s.n.47387] 3.4 05:51:43 10° SW 05:54:13 46° SE 05:56:44 10° ENE
[s.n.47375] 3.4 05:51:44 10° SW 05:54:13 46° SE 05:56:44 10° ENE
[s.n.47376] 3.4 05:51:43 10° SW 05:54:16 46° SE 05:56:50 10° ENE
[s.n.47366] 3.4 05:51:53 10° SW 05:54:23 46° SE 05:56:55 10° ENE
[s.n.47352] 3.4 05:51:55 10° SW 05:54:26 46° SE 05:56:59 10° ENE
[s.n.47364] 3.4 05:51:59 10° SW 05:54:30 46° SE 05:57:03 10° ENE
[s.n.47388] 3.4 05:52:02 10° SW 05:54:33 46° SE 05:57:06 10° ENE
[s.n.47397] 3.4 05:52:08 10° SW 05:54:39 46° SE 05:57:10 10° ENE
Cosmos 2297 4.4 05:50:11 10° NW 05:55:14 34° WSW 06:00:19 10° SSW
PAYLOAD B 4.4 05:50:23 10° NNE 05:56:00 83° ESE 06:01:37 10° SSW
MOS 1 Rocket 4.4 05:53:13 10° SSW 05:57:07 24° W 06:00:52 10° NW
Cosmos 1346 Rocket 3.7 05:55:02 10° NNW 05:58:27 27° W 06:01:50 10° SSW
ATLAS 3B R/B 4.2 05:53:03 10° S 05:59:00 38° ESE 06:05:04 10° NE
USA 238 DEB 3.8 05:54:24 10° WSW 06:00:51 53° NW 06:07:39 10° NE
USA 238 3.8 05:54:30 10° WSW 06:00:57 54° NW 06:07:45 10° NE
NOAA 12 4.2 05:59:12 10° NNE 06:04:31 89° E 06:09:51 10° SSW
Cosmos 1689 Rocket 3.8 06:04:46 10° SW 06:06:30 15° W 06:07:23 13° WNW
ATLAS CENTAUR R/B 2.8 06:07:56 12° WNW 06:09:47 16° NW 06:12:11 10° N
Cosmos 1441 Rocket 3.4 06:06:10 10° N 06:10:08 79° ENE 06:14:01 10° SSE
TIMED 4.5 06:07:13 10° SSW 06:11:34 73° WNW 06:15:58 10° NNE
BREEZE M DEB (TANK) 2.0 06:12:10 10° WSW 06:14:32 87° NNW 06:20:05 10° ENE
SL-19 R/B 4.0 06:11:01 10° N 06:14:40 55° WNW 06:17:51 10° SSW
MOS 1-B 4.3 06:11:55 10° N 06:17:39 66° WNW 06:23:22 10° SSW
Cosmos 1726 Rocket 4.0 06:13:55 10° SW 06:17:58 39° WNW 06:22:02 10° N
YAOGAN 6 3.8 06:15:29 10° NNW 06:18:28 23° WNW 06:21:26 10° WSW
Cosmos 1892 2.9 06:15:14 10° NNW 06:18:59 52° W 06:22:44 10° S
Spot 2 4.2 06:15:26 10° N 06:19:20 47° WNW 06:23:16 10° SW
Cosmos 1184 Rocket 3.2 06:16:17 10° N 06:19:32 65° ENE 06:22:46 10° SSE
Cosmos 2058 Rocket 3.1 06:15:33 10° SSW 06:19:54 61° W 06:24:20 10° N
Cosmos 1603 3.7 06:15:34 10° SSW 06:21:11 86° WNW 06:26:53 10° NNE
GEOS 3 Rocket 4.3 06:16:32 10° S 06:21:32 40° WSW 06:26:36 10° NW
FALCON 9 DEB 3.3 06:19:46 10° W 06:22:45 43° NNW 06:25:45 10° NE
USA 215 4.2 06:17:53 10° ENE 06:23:40 35° N 06:29:28 10° NW
USA 307 3.7 06:21:22 10° W 06:25:15 34° NNW 06:29:08 10° NE
In-Cosmos 22 Rocket 4.5 06:24:13 10° NNW 06:29:22 44° W 06:34:25 10° SSW
Cosmos 2279 Rocket 4.4 06:24:12 10° SW 06:30:05 42° WNW 06:36:00 10° N
